Date,TemperatureHighF,TemperatureAvgF,TemperatureLowF,DewpointHighF,DewpointAvgF,DewpointLowF,HumidityHigh,HumidityAvg,HumidityLow,PressureMaxIn,PressureMinIn,WindSpeedMaxMPH,WindSpeedAvgMPH,GustSpeedMaxMPH,PrecipitationSumIn
2013-5-1,88.0,74.1,58.5,31.6,20.5,10.2,30,15,7,29.76,29.55,0,0,0,0.00
2013-5-2,69.4,59.1,49.1,32.4,26.1,16.7,47,29,15,30.26,29.76,0,0,0,0.00
2013-5-3,69.1,55.0,41.2,25.3,19.9,14.9,46,27,13,30.33,29.91,0,0,0,0.00
2013-5-4,84.4,65.1,43.0,28.8,22.3,15.6,55,22,12,29.91,29.68,0,0,0,0.00
2013-5-5,83.5,74.0,64.2,34.2,26.0,18.0,20,17,14,29.84,29.65,0,0,0,0.00
2013-5-6,80.4,70.9,62.1,42.3,34.2,24.8,44,27,17,29.80,29.67,0,0,0,0.00
2013-5-7,80.8,69.2,55.9,37.0,31.4,25.5,40,26,14,29.86,29.67,0,0,0,0.00
2013-5-8,80.1,68.4,57.6,34.3,28.1,22.1,37,23,12,29.85,29.71,0,0,0,0.00
2013-5-9,80.4,68.3,53.8,34.3,28.6,22.6,37,24,14,29.85,29.71,0,0,0,0.00
2013-5-10,77.4,65.1,54.5,47.5,39.7,29.5,73,42,23,30.01,29.75,0,0,0,0.21
2013-5-11,76.5,63.6,47.8,47.1,41.0,33.6,82,49,22,30.14,30.01,0,0,0,0.00
2013-5-12,81.7,69.0,54.3,41.9,37.3,32.0,59,34,18,30.12,29.91,0,0,0,0.00
2013-5-13,84.4,71.9,57.0,40.5,30.0,12.6,45,24,8,30.05,29.86,0,0,0,0.00
2013-5-14,84.6,72.3,54.9,45.3,38.2,28.6,57,31,17,29.94,29.69,0,0,0,0.00
2013-5-15,93.6,75.6,57.0,43.7,37.0,29.8,55,29,13,29.81,29.59,0,0,0,0.00
2013-5-16,91.0,77.2,57.9,39.6,32.3,23.7,45,22,9,29.75,29.56,0,0,0,0.00
2013-5-17,93.6,77.8,59.0,36.0,30.1,18.5,36,19,9,29.72,29.57,0,0,0,0.00
2013-5-18,88.7,76.6,60.3,34.9,25.3,12.0,33,16,7,29.73,29.56,0,0,0,0.00
2013-5-19,86.0,74.0,55.8,34.3,27.1,21.4,33,19,10,29.73,29.54,0,0,0,0.00
2013-5-20,87.3,76.4,58.6,36.5,28.6,21.0,34,19,9,29.71,29.50,0,0,0,0.00
2013-5-21,88.0,74.5,57.9,35.6,26.7,14.4,33,18,7,29.78,29.59,0,0,0,0.00
2013-5-22,92.3,76.0,54.3,34.0,26.5,18.3,40,18,7,29.71,29.53,0,0,0,0.00
2013-5-23,98.1,82.2,63.1,50.4,31.3,23.2,43,18,9,29.68,29.49,0,0,0,0.00
2013-5-24,95.7,79.9,60.1,53.6,43.8,31.8,69,32,13,29.76,29.59,0,0,0,0.00
2013-5-25,96.1,83.9,72.7,57.6,41.2,23.0,54,27,8,29.74,29.56,0,0,0,0.00
2013-5-26,94.5,80.8,63.5,34.5,23.9,12.7,22,13,6,29.77,29.59,0,0,0,0.00
2013-5-27,92.8,77.8,57.7,30.4,21.2,5.2,32,14,4,29.71,29.52,0,0,0,0.00
2013-5-28,92.1,78.3,59.4,30.4,20.6,9.5,29,13,5,29.57,29.36,0,0,0,0.00
2013-5-29,87.1,77.0,64.2,37.0,29.5,15.8,27,18,10,29.54,29.39,0,0,0,0.00
2013-5-30,90.5,78.5,62.2,43.0,37.0,31.3,36,23,16,29.66,29.49,0,0,0,0.00
2013-5-31,95.7,82.5,64.2,42.3,37.5,32.9,39,21,12,29.69,29.49,0,0,0,0.00